Location: Unspecified
(0.0000°N, 0.0000°E)
Time: 16:17:04
(UTC+00:00)

Tiros 1 - Pass Details

Date: 20 May 2026
Orbit: 618 x 649 km, 48.4° (Epoch: 6 June)

Event Time Altitude Azimuth Distance (km) Brightness Sun altitude
Rises 18:17:52 0° 218° (SW) 2,956 10.8 -5.0°
Reaches altitude 10° 18:20:13 10° 218° (SW) 2,043 10.0 -5.5°
Maximum altitude 18:24:56 87° 134° (SE) 648 7.2 -6.7°
Drops below altitude 10° 18:29:37 10° 39° (NE) 2,026 9.5 -7.8°
Sets 18:31:56 0° 39° (NE) 2,929 10.3 -8.3°
